Showing default

SKYKRAFT-3, 56229

Orbit data source: Space-Track

SKYKRAFT-3, 56229 is a payload satellite owned by SkyKraft (AU) in SSO that was launched on Mon, 12 Jun 2023 UTC via an FALCON 9 launch vehicle from the Air Force Western Test Range (AFWTR). Payload-class satellites include a variety of spacecraft equipped with specific instruments for various scientific and technological missions. These include communications satellites like Starlink; space stations such as the ISS; scientific satellites like the Hubble; Earth observation satellites from companies like Planet Labs, Umbra, and HawkEye 360; GPS; miniature CubeSats for education and research; and military/defense satellites.

Loading next visibility...
Identifier
56229, 2023-084BN
Orbit
SSO
Country
Flag of AUAU / AUS
Related business
Manufacturer
SkyKraft
Mission
Operational Commercial Communications
Bus & Motor
SKYKRAFT CARRIER, AOCS
Mass
~100 kg wet, ~100 kg dry
Launch date (UTC)
2023-06-12 (2 years ago)
Launch vehicle
FALCON 9
Launch site
Air Force Western Test Range (AFWTR)
Object type
Payload
Rocket body
Debris
Shape & HBR
Box, 0.3 m
Radar Cross Section
0.065 m², Medium (>0.1 m² and < 1m²)

Expand to show TLE details & history
Last TLE update: 11 hours ago

TLE from 11 hours ago
0 SKYKRAFT-3
1 56229U 23084BN  25286.57145718  .00146483  00000-0  12817-2 0  9999
2 56229  97.5833  68.6645 0002195  56.5818 303.5653 15.68443278130609
Epoch: 2025-10-13T13:42Z
TLE epoch observation values (Epoch: 2025-10-13T13:42:53.900Z)
Latitude
0.00004°
Longitude
-159.43241°
Altitude
365.686 km
Speed
7.69 km/s
True Right ascension
04h 34m 39s
True Declination
0° 00' 00"
Sunlit
Object was in full shadow at epoch
Visualization orbit readout
Latitude
Unknown
Longitude
Unknown
Altitude
Unknown
Speed
Unknown
Apparent Right ascension
Unknown
Apparent Declination
Unknown
Sunlit
N/A
Visualization observer readout
Local Sidereal Time
19:21:09
Azimuth
Unknown
Elevation
Unknown
Doppler factor
Unknown
Orbital elements
Apogee altitude
361.743 km
Perigee altitude
358.784 km
Semi-major axis
6,738.4 km
Eccentricity
0.00022
Inclination
97.5833°
RAAN
68.6645°
Arg. of periapsis
56.5818°
True anomaly
303.54434°
Mean anomaly
303.5653°
Eccentric anomaly
303.55482°
Mean motion
3.92381 °/min
Orbital period
91.75 mins
BSTAR
0.0012817
Loading maneuver chart data...
Computing Atmospheric mass density...
Loading historical data...
Loading historical data...
Loading historical data...
Loading historical data...
Loading historical data...
Loading historical data...
Loading historical data...

Documentation

Showing up to 5 results
|